Temperature
22 22 21 21 21 20 20 20 20 20 19 19 19 18 18 18 18 18 18 18 18 18 18 18 18 17 17 17 17 17 17 17 17 17 17 17 17 17 17 17 17 17 17
21 22 22 21 21 21 21 20 20 20 20 19 19 19 19 18 18 18 18 18 18 18 18 18 18 17 17 17 17 17 17 17 17 17 16 16 17 17 17 17 17 17 17
22 22 22 22 22 21 21 21 20 20 20 19 19 19 18 18 18 18 18 18 18 18 18 18 17 17 17 17 17 17 17 17 17 17 17 16 16 16 17 17 17 17 17
22 22 22 22 22 22 21 21 21 20 20 19 19 19 19 19 19 19 18 18 18 18 18 18 17 17 17 17 17 17 17 17 17 17 17 17 17 16 16 17 17 17 17
22 23 23 23 22 22 22 21 21 20 20 20 19 19 19 19 19 18 18 18 18 18 18 18 17 17 17 17 17 17 17 17 17 17 17 17 17 16 16 16 17 17 17
22 23 23 23 22 22 22 21 21 21 20 20 19 19 19 19 19 19 18 18 18 18 18 18 18 17 17 17 17 17 17 17 17 17 17 17 17 17 16 16 16 16 17
22 22 22 22 22 22 22 21 21 21 20 20 20 19 19 19 19 19 18 18 18 18 18 18 18 18 17 17 17 17 17 17 17 17 17 17 17 17 16 16 16 16 16
22 22 23 23 23 22 22 21 21 21 20 20 20 19 19 19 19 19 18 18 18 18 18 18 18 18 18 17 17 17 17 17 17 17 17 17 17 17 16 16 16 16 16
22 22 22 23 22 22 22 22 21 21 20 20 20 19 19 19 19 18 18 18 18 18 18 18 18 18 17 17 17 17 17 17 17 17 17 17 17 17 16 16 16 16 16
22 22 22 22 22 22 22 21 21 21 20 20 20 19 19 19 19 18 18 18 18 18 18 18 18 17 17 17 17 17 17 17 17 16 17 17 16 16 16 16 16 16 16
22 22 22 22 21 21 21 21 21 21 20 20 20 19 19 19 19 18 18 18 18 18 18 18 17 17 17 17 17 17 17 16 16 16 16 16 16 16 16 16 16 16 16
21 22 22 21 21 21 20 20 21 20 20 20 20 19 19 19 19 18 18 18 18 18 18 17 17 17 17 17 17 17 16 16 16 16 16 16 16 16 16 16 16 15 15
21 21 21 21 20 20 20 20 20 20 20 20 19 19 19 19 18 18 18 18 18 17 17 17 17 17 17 17 16 16 16 16 16 16 16 16 16 16 16 15 15 15 15
20 20 20 20 20 20 19 19 19 19 19 19 19 19 19 18 18 18 18 17 17 17 17 17 17 17 17 16 16 16 16 16 16 16 15 15 15 15 15 15 15 15 15
19 19 19 19 19 19 19 19 19 19 19 19 19 18 18 18 18 18 18 17 17 17 17 16 16 16 16 16 16 16 16 16 15 15 15 15 15 15 15 15 15 15 15
18 19 19 19 19 19 19 19 19 19 19 18 18 18 18 18 18 17 17 17 17 17 17 16 16 16 16 16 16 16 16 16 15 15 15 15 15 15 15 15 15 15 15
18 18 18 18 18 18 18 18 18 18 18 18 18 18 17 17 17 17 17 17 17 16 16 16 16 16 16 16 16 15 15 15 15 15 15 15 15 15 15 15 15 15 14
18 18 18 18 18 18 18 18 18 18 17 17 17 17 17 17 17 17 16 16 16 16 16 16 16 16 16 15 15 15 15 15 15 15 15 15 15 15 14 14 14 14 14
18 18 18 18 18 18 17 17 17 17 17 17 17 17 16 16 16 16 16 16 16 16 16 16 15 16 15 15 15 15 15 15 15 15 15 15 15 14 14 14 14 14 14
18 17 17 17 17 17 17 17 17 16 16 16 16 16 16 16 16 16 15 16 15 15 15 15 15 15 15 15 15 14 14 14 14 14 14 14 14 14 14 14 14 14 14
17 17 17 17 17 17 17 17 16 16 16 16 16 15 15 15 15 15 15 15 15 15 14 14 14 14 14 14 14 14 14 14 14 14 14 14 14 14 14 13 13 13 13
17 16 16 16 16 16 16 16 16 16 15 15 15 15 15 15 15 15 14 14 14 14 14 14 14 14 14 14 14 14 14 14 13 13 14 14 14 13 13 13 13 13 12
16 16 16 16 15 16 16 16 15 15 15 15 15 15 14 14 14 14 14 14 14 13 13 13 13 13 13 13 13 13 13 13 13 13 13 13 13 13 13 13 13 12 12
15 15 15 15 15 15 15 15 15 14 14 14 14 14 14 14 14 13 13 13 13 13 13 13 13 13 13 13 13 13 13 13 13 13 13 13 13 13 13 12 12 12 12
14 14 14 14 14 14 14 14 14 14 14 14 14 14 13 13 13 13 13 13 13 13 13 13 13 13 13 13 13 12 13 12 12 12 13 12 12 12 12 12 12 12 12
14 14 14 14 13 13 13 13 13 13 13 13 13 13 13 13 13 12 12 12 12 12 12 12 12 12 12 12 12 12 12 12 12 12 12 12 12 12 12 11 11 11 11
Wind_Speed
10 9 10 10 9 8 8 8 8 6 6 4 3 3 3 2 2 3 4 5 5 5 5 3 3 3 3 3 4 3 3 2 3 2 1 2 1 1 1 2 2 3 5
7 9 10 10 11 11 10 9 9 8 7 5 4 3 3 2 2 2 3 5 5 5 5 4 3 4 3 3 4 4 3 2 2 2 1 1 2 1 1 2 3 3 4
12 11 12 12 11 12 12 11 10 9 8 7 4 3 3 2 1 2 2 3 5 5 5 4 4 4 4 4 4 4 5 3 2 2 3 2 2 1 1 1 2 3 3
11 11 12 12 13 13 11 10 10 9 8 8 7 7 5 4 4 3 2 2 3 4 5 5 4 4 4 4 4 4 4 4 3 2 2 2 3 2 1 1 1 2 4
13 13 14 14 12 11 11 10 9 8 8 8 9 8 6 4 3 2 3 2 2 3 4 4 4 4 4 4 4 3 4 3 4 3 2 2 1 2 2 2 2 1 3
12 12 12 10 10 10 9 9 9 8 8 9 9 9 8 6 5 4 4 3 2 2 3 4 4 4 4 4 4 4 5 4 4 3 3 3 3 3 3 4 3 3 3
12 11 11 12 12 12 11 10 10 9 8 9 9 9 8 8 7 6 5 4 3 3 4 4 4 3 4 4 4 4 4 5 5 5 4 4 4 3 3 3 3 3 3
11 12 13 13 13 13 11 10 10 9 9 9 8 7 7 6 6 6 5 5 4 4 4 4 4 4 4 4 4 4 4 4 5 6 5 4 4 4 4 4 3 3 2
9 10 10 11 11 11 11 11 10 9 9 9 8 7 7 7 6 5 5 4 4 4 4 4 4 4 4 4 4 3 4 4 5 5 5 5 4 4 4 4 4 4 4
6 7 8 10 10 10 9 9 10 9 8 8 8 7 6 7 6 6 6 5 5 4 4 4 4 4 4 4 4 3 3 4 4 4 4 4 4 4 4 5 4 4 4
5 6 6 7 8 8 8 9 8 7 7 7 7 6 6 6 6 6 6 5 5 5 5 4 4 4 4 3 3 4 4 4 3 3 4 4 4 4 4 4 4 4 4
3 5 5 6 7 8 7 8 8 8 8 7 7 6 6 6 5 5 5 5 5 4 4 4 4 4 4 3 4 4 4 4 4 4 4 5 4 4 4 4 5 5 5
3 4 5 6 7 7 7 7 7 8 7 7 6 6 6 6 6 6 5 5 5 4 4 4 5 4 4 4 4 4 4 4 5 5 5 5 4 5 4 5 5 5 5
4 4 4 4 5 5 6 7 7 7 7 7 7 6 6 6 6 5 5 5 5 5 5 5 5 5 5 5 4 4 4 4 4 5 5 5 5 6 6 5 6 5 5
3 3 3 3 4 5 5 6 6 6 6 6 7 6 5 4 4 4 4 4 4 5 4 4 4 4 4 5 5 5 5 5 5 4 5 6 6 6 5 5 6 6 5
3 3 3 3 4 4 4 5 5 5 6 7 6 5 5 5 4 4 4 4 4 4 4 5 5 5 5 5 6 5 5 5 5 5 5 5 5 6 7 7 7 8 7
4 3 3 4 4 4 4 4 4 5 6 6 5 5 5 5 4 4 4 4 4 4 4 5 5 5 6 6 6 6 5 5 5 5 5 4 4 5 5 5 6 7 9
4 3 3 4 3 3 3 3 4 5 6 5 5 5 5 5 4 4 4 4 4 4 5 5 5 5 6 6 6 6 5 5 5 5 5 5 5 4 4 4 4 5 5
4 3 3 4 4 4 4 5 4 4 4 4 4 4 4 4 4 5 5 4 4 4 5 5 5 6 6 5 6 5 4 4 5 5 5 5 5 6 5 4 5 4 4
4 3 3 4 4 4 5 6 5 4 3 3 3 3 3 3 4 5 4 3 3 4 3 4 4 5 6 6 6 6 4 5 5 4 5 6 6 6 5 5 5 6 5
4 4 4 4 3 4 5 5 4 3 2 2 2 2 2 2 3 3 2 2 2 2 2 3 3 3 5 5 6 7 5 5 5 5 5 4 6 6 6 6 6 7 5
4 4 4 3 2 3 4 4 2 1 1 2 2 1 1 1 1 2 2 2 2 2 2 2 3 3 3 4 5 6 6 5 5 5 4 4 5 6 6 5 6 6 4
4 3 4 3 2 2 3 3 2 1 2 2 1 1 1 1 1 2 2 2 2 2 2 2 3 3 3 3 4 4 5 4 3 4 4 4 4 4 4 5 6 4 3
3 3 4 3 2 1 1 2 1 2 3 2 1 1 1 1 1 1 2 2 2 2 3 3 3 3 3 3 2 2 2 3 3 2 2 2 2 2 3 3 3 3 4
2 3 3 3 2 1 1 1 1 2 2 2 1 1 1 1 1 1 1 2 2 3 3 3 3 3 4 5 4 3 3 3 3 2 1 0 1 1 2 2 2 2 3
3 3 3 3 2 1 1 1 1 2 2 1 0 0 0 0 0 0 2 2 1 2 3 4 3 3 5 6 5 3 3 3 2 2 1 2 2 2 3 3 3 3 3
Wind_Direction
205 191 188 183 177 177 178 182 181 174 161 158 166 167 185 185 184 194 203 202 199 190 184 186 176 169 172 177 161 145 134 143 132 113 53 16 10 264 242 226 223 230 227
191 189 187 186 185 185 185 184 185 178 176 178 169 161 157 171 183 191 195 204 201 195 193 187 187 179 170 168 165 154 148 167 162 147 124 343 344 337 252 230 227 233 222
195 193 192 193 189 189 190 193 190 183 181 169 143 123 107 97 144 189 207 207 200 197 198 194 190 183 178 185 186 171 168 184 191 174 163 174 226 287 315 251 234 227 222
196 195 194 194 195 195 191 190 186 183 179 168 165 165 174 187 200 193 198 202 198 196 197 193 188 186 185 189 193 179 178 174 195 196 203 205 180 183 276 308 259 235 233
195 196 198 198 196 190 187 188 183 183 180 177 178 177 183 189 178 163 170 189 201 196 192 189 185 188 191 192 187 177 183 188 196 196 190 198 205 201 204 257 275 269 245
197 199 198 190 189 185 185 184 182 189 183 182 182 184 184 179 172 180 189 196 201 199 195 187 191 196 198 197 198 194 195 201 202 206 199 192 194 199 201 230 251 263 267
194 194 191 189 189 186 187 185 185 191 187 185 189 190 188 184 188 191 196 194 198 209 210 196 192 199 204 200 193 193 203 204 205 212 218 218 222 201 193 209 240 257 272
195 196 196 193 192 188 185 184 187 190 185 187 193 190 186 188 195 193 190 194 200 208 195 187 195 200 198 201 191 196 206 205 213 220 219 222 229 214 205 200 203 248 265
198 200 194 189 187 185 184 184 184 187 188 188 184 183 186 188 192 190 191 197 199 198 188 187 197 206 204 202 190 202 212 210 221 225 223 226 230 221 220 210 201 208 247
193 195 192 185 181 180 179 180 183 186 183 181 184 190 190 193 193 187 192 196 200 195 186 192 202 210 209 203 197 209 216 211 227 227 224 230 231 222 218 213 214 215 223
188 192 192 179 173 169 172 177 180 176 175 179 180 180 184 192 193 194 200 200 202 199 198 194 200 207 208 201 197 210 212 217 231 233 227 237 232 227 220 214 212 216 215
152 170 168 157 163 168 170 172 174 175 177 178 178 182 183 186 193 200 201 195 197 202 202 193 197 203 204 199 200 212 215 215 224 234 230 242 240 232 227 221 223 223 217
107 130 144 154 164 168 170 172 175 180 173 167 174 183 191 193 201 200 196 193 194 198 200 194 203 211 210 208 212 216 218 219 223 227 229 237 231 238 234 229 230 228 224
112 115 129 150 160 166 169 173 177 176 172 168 176 187 194 195 195 194 193 195 193 196 204 207 212 213 212 211 213 214 221 229 235 234 234 233 228 235 236 233 230 225 223
107 119 133 143 148 152 161 169 175 175 171 169 181 194 192 185 183 186 190 193 196 206 208 211 219 220 217 220 213 214 224 231 242 248 247 243 238 235 233 234 228 220 221
156 154 138 127 136 147 153 161 171 172 162 172 183 183 176 178 187 196 191 190 200 205 203 210 216 222 231 229 211 210 224 230 237 245 253 254 247 245 240 238 230 218 217
176 159 143 146 148 153 149 158 169 162 162 171 174 177 180 186 191 198 199 201 209 208 213 219 219 230 239 231 221 216 218 228 235 240 244 251 255 249 255 252 243 234 228
160 145 135 137 142 151 141 134 138 148 158 169 172 174 180 190 191 190 199 208 211 213 221 227 228 234 243 231 222 216 219 229 236 238 238 241 254 254 247 246 250 250 247
158 156 153 147 145 142 139 130 129 134 142 157 168 177 181 191 198 203 210 214 215 225 229 229 231 238 249 238 228 215 228 239 246 244 239 236 244 247 231 226 233 244 252
131 130 121 118 125 129 130 130 140 142 155 170 174 178 181 191 207 212 215 213 212 232 241 245 243 239 244 240 228 211 224 241 251 253 249 242 245 248 228 220 226 238 245
127 122 118 121 129 135 129 129 140 159 181 170 149 166 190 206 216 206 206 206 209 225 250 265 278 264 253 249 231 216 218 231 244 250 255 255 247 246 239 230 229 235 234
122 126 125 115 110 116 123 129 156 185 149 148 160 171 195 221 232 207 209 204 196 210 238 260 286 290 280 262 240 228 225 222 230 243 251 254 251 253 251 240 235 230 221
133 137 134 117 89 101 132 149 187 161 144 147 174 194 197 217 256 217 209 219 210 211 230 245 264 287 298 288 260 241 240 232 228 244 245 252 250 252 252 246 236 218 213
136 134 125 122 125 130 134 171 179 160 147 161 172 176 193 250 302 257 213 210 216 225 234 245 259 275 285 286 282 261 253 257 251 256 252 246 243 242 247 249 236 225 219
141 134 133 143 163 161 118 113 128 135 146 160 160 157 161 195 236 277 258 242 242 234 232 244 246 259 280 277 263 248 247 244 242 235 241 282 295 288 284 275 252 234 225
137 126 119 129 141 128 109 97 129 140 146 153 167 182 161 206 238 2 355 3 326 314 275 259 255 268 260 277 268 249 242 236 211 172 214 246 256 260 265 266 264 255 248
Height
1504 1507 1510 1513 1516 1518 1520 1522 1524 1526 1528 1529 1530 1532 1533 1535 1536 1538 1539 1540 1542 1543 1544 1544 1546 1547 1548 1549 1550 1551 1552 1553 1554 1555 1555 1556 1556 1557 1557 1558 1558 1559 1560
1502 1504 1507 1510 1513 1515 1518 1520 1522 1524 1526 1528 1530 1532 1533 1535 1536 1538 1539 1540 1541 1542 1543 1544 1545 1546 1547 1548 1549 1550 1550 1551 1553 1553 1554 1554 1556 1555 1555 1556 1556 1557 1558
1497 1500 1504 1506 1509 1512 1515 1517 1520 1522 1524 1527 1529 1531 1533 1534 1535 1536 1538 1539 1540 1541 1542 1543 1544 1545 1546 1546 1547 1548 1549 1550 1551 1552 1553 1553 1553 1553 1553 1554 1554 1555 1556
1494 1496 1499 1502 1505 1509 1512 1515 1518 1520 1523 1525 1527 1529 1531 1532 1534 1535 1537 1538 1539 1540 1541 1541 1542 1543 1544 1545 1546 1547 1548 1549 1549 1550 1551 1552 1552 1552 1551 1552 1552 1553 1553
1489 1492 1494 1497 1501 1506 1509 1512 1515 1518 1521 1523 1525 1527 1529 1531 1533 1534 1535 1537 1538 1538 1539 1540 1541 1542 1542 1543 1544 1545 1546 1547 1548 1548 1549 1549 1550 1550 1550 1549 1550 1551 1551
1483 1487 1491 1495 1498 1502 1506 1509 1512 1515 1518 1520 1523 1525 1527 1529 1531 1532 1533 1535 1536 1536 1537 1538 1539 1539 1540 1541 1542 1543 1544 1545 1545 1546 1546 1547 1547 1547 1547 1547 1547 1547 1548
1479 1482 1486 1490 1494 1497 1501 1505 1508 1511 1515 1518 1520 1522 1524 1527 1528 1530 1532 1532 1533 1534 1535 1536 1536 1537 1538 1539 1540 1540 1541 1542 1542 1543 1543 1544 1544 1544 1545 1545 1544 1544 1544
1475 1478 1481 1484 1488 1492 1497 1501 1505 1508 1511 1514 1517 1519 1522 1524 1526 1527 1529 1530 1531 1532 1533 1534 1534 1535 1535 1536 1537 1538 1538 1539 1539 1540 1540 1540 1541 1541 1542 1542 1542 1541 1541
1472 1475 1478 1481 1485 1489 1493 1497 1501 1505 1508 1511 1514 1516 1518 1520 1522 1524 1526 1527 1528 1529 1530 1531 1532 1532 1533 1533 1534 1535 1535 1536 1536 1537 1537 1537 1537 1538 1538 1539 1539 1540 1538
1469 1472 1476 1478 1481 1485 1490 1495 1498 1502 1505 1508 1511 1513 1515 1517 1519 1521 1523 1524 1525 1526 1527 1528 1529 1529 1530 1530 1531 1531 1532 1533 1533 1533 1533 1534 1534 1534 1535 1535 1535 1535 1535
1467 1470 1473 1476 1480 1483 1488 1491 1495 1498 1502 1505 1508 1510 1512 1514 1516 1517 1519 1521 1522 1523 1523 1524 1525 1526 1527 1527 1527 1528 1529 1529 1529 1530 1530 1530 1530 1530 1531 1531 1531 1531 1531
1465 1469 1472 1474 1477 1481 1484 1488 1492 1495 1498 1501 1504 1506 1509 1511 1512 1514 1516 1517 1518 1520 1520 1521 1522 1522 1523 1523 1524 1524 1525 1525 1526 1526 1526 1526 1526 1526 1527 1527 1527 1527 1527
1466 1468 1470 1473 1475 1478 1481 1485 1488 1491 1494 1497 1500 1503 1505 1507 1509 1510 1512 1514 1515 1516 1517 1517 1518 1518 1519 1520 1520 1521 1521 1521 1521 1522 1522 1522 1522 1522 1522 1522 1522 1522 1522
1466 1467 1469 1471 1474 1477 1479 1482 1484 1488 1491 1493 1497 1500 1502 1504 1505 1507 1509 1510 1512 1513 1513 1514 1514 1515 1515 1515 1516 1517 1517 1517 1517 1518 1518 1518 1518 1518 1518 1518 1518 1518 1518
1466 1467 1469 1471 1473 1475 1477 1480 1482 1485 1488 1490 1494 1496 1498 1500 1502 1503 1505 1507 1508 1509 1510 1510 1510 1511 1511 1511 1511 1512 1513 1513 1513 1513 1513 1513 1513 1513 1513 1513 1513 1513 1513
1465 1467 1468 1470 1471 1473 1475 1478 1480 1482 1485 1488 1490 1493 1495 1496 1498 1499 1501 1502 1503 1504 1505 1505 1505 1506 1506 1507 1507 1508 1508 1508 1509 1509 1509 1509 1509 1509 1509 1508 1508 1509 1509
1464 1465 1466 1467 1469 1471 1473 1475 1478 1480 1482 1485 1487 1489 1491 1492 1494 1495 1497 1497 1499 1500 1501 1501 1501 1502 1502 1503 1503 1503 1504 1504 1504 1504 1504 1504 1504 1504 1504 1504 1504 1504 1504
1462 1463 1464 1466 1468 1471 1472 1474 1476 1478 1480 1483 1484 1486 1487 1488 1490 1491 1492 1494 1495 1495 1496 1496 1497 1497 1498 1499 1499 1499 1499 1499 1499 1500 1500 1499 1499 1499 1500 1499 1498 1498 1499
1461 1463 1464 1466 1468 1469 1471 1473 1474 1476 1478 1480 1481 1482 1484 1485 1486 1487 1489 1490 1491 1491 1492 1492 1492 1492 1493 1494 1494 1495 1494 1494 1494 1495 1495 1495 1495 1495 1495 1494 1494 1494 1494
1461 1463 1464 1466 1467 1468 1470 1471 1473 1475 1476 1477 1478 1480 1481 1483 1483 1484 1486 1486 1487 1488 1488 1487 1488 1488 1488 1489 1489 1490 1489 1489 1489 1490 1490 1491 1490 1491 1490 1490 1489 1489 1489
1461 1462 1464 1465 1466 1467 1468 1470 1472 1473 1475 1476 1477 1478 1479 1480 1481 1481 1482 1483 1483 1484 1483 1484 1484 1483 1483 1483 1484 1485 1485 1485 1485 1485 1485 1486 1486 1486 1486 1485 1485 1485 1485
1460 1462 1463 1464 1465 1466 1467 1469 1470 1472 1473 1474 1475 1475 1477 1477 1478 1478 1479 1479 1479 1480 1480 1480 1480 1479 1479 1479 1479 1480 1480 1480 1480 1480 1481 1481 1482 1482 1482 1481 1481 1481 1481
1459 1461 1462 1462 1464 1465 1466 1468 1469 1471 1472 1472 1473 1473 1474 1474 1475 1475 1475 1476 1476 1477 1477 1477 1476 1475 1475 1476 1476 1476 1476 1475 1475 1476 1476 1477 1477 1477 1477 1476 1476 1476 1476
1459 1460 1461 1462 1463 1464 1466 1467 1468 1469 1470 1471 1471 1472 1471 1471 1472 1471 1472 1473 1473 1473 1473 1473 1473 1472 1472 1472 1472 1472 1471 1471 1471 1471 1472 1472 1472 1472 1471 1471 1471 1471 1471
1458 1459 1460 1460 1462 1463 1464 1466 1467 1468 1468 1469 1469 1470 1470 1469 1469 1469 1469 1470 1470 1471 1471 1471 1470 1469 1468 1469 1469 1468 1467 1467 1467 1466 1466 1466 1466 1466 1466 1466 1466 1467 1467
1457 1458 1459 1460 1461 1462 1463 1464 1465 1466 1466 1467 1467 1468 1467 1467 1467 1467 1467 1468 1468 1469 1469 1469 1468 1466 1467 1467 1466 1465 1464 1463 1463 1463 1462 1461 1461 1461 1462 1462 1462 1462 1462